No particular awareness of the weather is required.    There are no Weather-warnings


Meteo18 Weather Cam more information Meteo18 Weather Cam


Thunder radar more information blitzortung!


Rain radar more information rain snow radar


Visit our other weather sites:

Template documentation
and downloads

And another site



Weather Underground History page Text

Daily Summary for September 12, 2017 Units:  English    Metric   Both
« Previous Day
Next Day »
Daily Weekly Monthly Yearly Custom
  High: Low: Average:
Temperature: TemperatureC °F 11.1 °F 14.4 °F
Dew Point: DewpointC °F 6.5 °F 9.3 °F
Humidity: Humidity % 45 % 73 %
Wind Speed: WindSpeedKMH mph 0.0 mph 9.6 mph
Wind Gust: WindSpeedGustKMH mph - -
Wind:- - WSW
Pressure: PressurehPa in 1009.7 in -
Precipitation: 0.0 in    
Historical Graphs
 
 
Tabular Data for September 12, 2017
Time Temperature Dew Point Pressure Wind Wind Speed Wind Gust Humidity Rainfall Rate (Hourly)
TemperatureC °F DewpointC °F PressurehPa in Calm     Humidity % HourlyPrecipMM in
00:02 12.9 °F 10.4 °F 1009.7 in SSW 4.8 mph 12.9 mph 85 % 0.0 in
00:12 12.9 °F 10.3 °F 1009.7 in SW 8.0 mph 11.3 mph 84 % 0.0 in
00:17 12.9 °F 10.1 °F 1009.7 in WSW 4.8 mph 11.3 mph 83 % 0.0 in
00:22 13.1 °F 10.1 °F 1009.7 in WSW 11.3 mph 17.7 mph 82 % 0.0 in
00:32 13.3 °F 9.7 °F 1009.7 in SW 12.9 mph 17.7 mph 79 % 0.0 in
00:37 13.4 °F 9.4 °F 1010.0 in West 12.9 mph 19.3 mph 77 % 0.0 in
00:42 13.4 °F 9.6 °F 1009.7 in West 12.9 mph 25.7 mph 78 % 0.0 in
00:47 13.4 °F 9.4 °F 1009.7 in West 12.9 mph 25.7 mph 77 % 0.0 in
00:52 13.4 °F 9.4 °F 1009.7 in West 4.8 mph 20.9 mph 77 % 0.0 in
00:57 13.5 °F 9.5 °F 1009.7 in SW 14.5 mph 20.9 mph 77 % 0.0 in
01:02 13.6 °F 9.6 °F 1010.0 in WSW 8.0 mph 20.9 mph 77 % 0.0 in
01:07 13.6 °F 9.8 °F 1009.7 in WSW 12.9 mph 20.9 mph 78 % 0.0 in
01:12 13.6 °F 9.8 °F 1009.7 in WSW 4.8 mph 25.7 mph 78 % 0.0 in
01:17 13.6 °F 9.8 °F 1009.7 in WSW 8.0 mph 25.7 mph 78 % 0.0 in
01:22 13.5 °F 9.9 °F 1009.7 in WSW 9.7 mph 22.5 mph 79 % 0.0 in
01:27 13.4 °F 9.8 °F 1010.0 in West 12.9 mph 22.5 mph 79 % 0.0 in
01:32 13.4 °F 10.0 °F 1010.0 in West 14.5 mph 20.9 mph 80 % 0.0 in
01:37 13.3 °F 10.1 °F 1010.0 in SW 3.2 mph 19.3 mph 81 % 0.0 in
01:42 13.2 °F 10.0 °F 1010.0 in West 12.9 mph 19.3 mph 81 % 0.0 in
01:47 13.1 °F 10.1 °F 1010.0 in West 8.0 mph 17.7 mph 82 % 0.0 in
01:52 13.0 °F 10.2 °F 1009.7 in SSW 8.0 mph 22.5 mph 83 % 0.0 in
01:57 12.9 °F 10.1 °F 1009.7 in SW 11.3 mph 22.5 mph 83 % 0.0 in
02:02 12.8 °F 10.2 °F 1010.0 in WSW 17.7 mph 22.5 mph 84 % 0.0 in
02:12 12.7 °F 10.2 °F 1010.0 in West 9.7 mph 20.9 mph 85 % 0.0 in
02:17 12.7 °F 10.4 °F 1010.0 in SW 8.0 mph 20.9 mph 86 % 0.0 in
02:22 12.6 °F 10.3 °F 1010.0 in West 12.9 mph 20.9 mph 86 % 0.0 in
02:32 12.6 °F 10.5 °F 1010.0 in West 8.0 mph 20.9 mph 87 % 0.0 in
02:42 12.5 °F 10.4 °F 1010.0 in West 8.0 mph 25.7 mph 87 % 0.0 in
02:47 12.5 °F 10.4 °F 1010.4 in WSW 12.9 mph 25.7 mph 87 % 0.0 in
02:52 12.4 °F 10.3 °F 1010.4 in WSW 6.4 mph 22.5 mph 87 % 0.0 in
02:57 12.4 °F 10.3 °F 1010.4 in WSW 12.9 mph 19.3 mph 87 % 0.0 in
03:02 12.4 °F 10.5 °F 1010.4 in WSW 3.2 mph 19.3 mph 88 % 0.0 in
03:07 12.4 °F 10.5 °F 1010.4 in West 6.4 mph 19.3 mph 88 % 0.0 in
03:12 12.3 °F 10.4 °F 1010.4 in WSW 8.0 mph 19.3 mph 88 % 0.0 in
03:22 12.3 °F 10.4 °F 1010.7 in WSW 4.8 mph 17.7 mph 88 % 0.0 in
03:27 12.3 °F 10.4 °F 1010.7 in West 6.4 mph 16.1 mph 88 % 0.0 in
03:32 12.3 °F 10.5 °F 1010.7 in SW 8.0 mph 16.1 mph 89 % 0.0 in
03:42 12.3 °F 10.4 °F 1011.1 in WSW 6.4 mph 17.7 mph 88 % 0.0 in
03:47 12.4 °F 10.5 °F 1011.1 in WSW 9.7 mph 17.7 mph 88 % 0.0 in
03:52 12.4 °F 10.5 °F 1011.1 in SW 8.0 mph 17.7 mph 88 % 0.0 in
03:57 12.4 °F 10.5 °F 1011.1 in SSW 4.8 mph 16.1 mph 88 % 0.0 in
04:02 12.4 °F 10.6 °F 1011.1 in West 12.9 mph 16.1 mph 89 % 0.0 in
04:12 12.3 °F 10.5 °F 1011.1 in WSW 8.0 mph 17.7 mph 89 % 0.0 in
04:17 12.3 °F 10.5 °F 1011.1 in WSW 6.4 mph 17.7 mph 89 % 0.0 in
04:22 12.3 °F 10.5 °F 1011.1 in WSW 3.2 mph 14.5 mph 89 % 0.0 in
04:32 12.3 °F 10.5 °F 1011.1 in West 4.8 mph 17.7 mph 89 % 0.0 in
04:37 12.2 °F 10.4 °F 1011.1 in SW 8.0 mph 12.9 mph 89 % 0.0 in
04:42 12.2 °F 10.4 °F 1011.1 in WSW 3.2 mph 12.9 mph 89 % 0.0 in
04:47 12.2 °F 10.4 °F 1011.1 in SSW 6.4 mph 12.9 mph 89 % 0.0 in
04:52 12.2 °F 10.4 °F 1011.4 in SW 4.8 mph 12.9 mph 89 % 0.0 in
05:02 12.1 °F 10.5 °F 1011.4 in SW 6.4 mph 12.9 mph 90 % 0.0 in
05:17 12.0 °F 10.4 °F 1011.4 in SW 6.4 mph 11.3 mph 90 % 0.0 in
05:27 11.9 °F 10.3 °F 1011.4 in SW 6.4 mph 9.7 mph 90 % 0.0 in
05:32 11.8 °F 10.2 °F 1011.4 in SW 1.6 mph 14.5 mph 90 % 0.0 in
05:37 11.8 °F 10.2 °F 1011.4 in SW 3.2 mph 14.5 mph 90 % 0.0 in
05:42 11.7 °F 10.1 °F 1011.4 in SW 3.2 mph 14.5 mph 90 % 0.0 in
05:52 11.6 °F 10.2 °F 1011.4 in SW 4.8 mph 11.3 mph 91 % 0.0 in
05:57 11.6 °F 10.2 °F 1011.4 in SW 4.8 mph 11.3 mph 91 % 0.0 in
06:02 11.6 °F 10.2 °F 1011.4 in SW 4.8 mph 11.3 mph 91 % 0.0 in
06:12 11.5 °F 10.1 °F 1011.4 in SW 1.6 mph 9.7 mph 91 % 0.0 in
06:17 11.5 °F 10.1 °F 1011.4 in Calm   9.7 mph 91 % 0.0 in
06:22 11.5 °F 10.1 °F 1011.7 in SW 4.8 mph 9.7 mph 91 % 0.0 in
06:27 11.5 °F 10.1 °F 1011.7 in SSW 1.6 mph 9.7 mph 91 % 0.0 in
06:32 11.4 °F 10.1 °F 1011.7 in SSW 4.8 mph 9.7 mph 92 % 0.0 in
06:37 11.4 °F 10.1 °F 1011.7 in South 3.2 mph 9.7 mph 92 % 0.0 in
06:42 11.3 °F 10.0 °F 1011.7 in SSW 3.2 mph 9.7 mph 92 % 0.0 in
06:47 11.3 °F 10.2 °F 1011.7 in WSW 8.0 mph 9.7 mph 93 % 0.0 in
06:52 11.4 °F 10.3 °F 1011.7 in SSW 3.2 mph 11.3 mph 93 % 0.0 in
06:57 11.4 °F 10.3 °F 1011.7 in SW 4.8 mph 11.3 mph 93 % 0.0 in
07:02 11.4 °F 10.3 °F 1011.7 in WSW 8.0 mph 11.3 mph 93 % 0.0 in
07:07 11.4 °F 10.3 °F 1012.1 in WSW 6.4 mph 11.3 mph 93 % 0.0 in
07:12 11.4 °F 10.3 °F 1012.1 in West 1.6 mph 14.5 mph 93 % 0.0 in
07:17 11.4 °F 10.3 °F 1012.1 in SW 8.0 mph 14.5 mph 93 % 0.0 in
07:22 11.4 °F 10.1 °F 1012.1 in SW 9.7 mph 16.1 mph 92 % 0.0 in
07:27 11.4 °F 10.1 °F 1012.4 in WSW 1.6 mph 16.1 mph 92 % 0.0 in
07:32 11.3 °F 10.0 °F 1012.4 in West 11.3 mph 16.1 mph 92 % 0.0 in
07:42 11.2 °F 9.9 °F 1012.4 in WSW 8.0 mph 14.5 mph 92 % 0.0 in
07:52 11.1 °F 9.8 °F 1012.8 in WSW 8.0 mph 16.1 mph 92 % 0.0 in
07:57 11.1 °F 9.8 °F 1012.8 in WSW 4.8 mph 16.1 mph 92 % 0.0 in
08:02 11.1 °F 9.8 °F 1012.8 in West 1.6 mph 16.1 mph 92 % 0.0 in
08:07 11.2 °F 9.9 °F 1012.8 in West 12.9 mph 12.9 mph 92 % 0.0 in
08:12 11.3 °F 10.0 °F 1012.8 in SW 11.3 mph 12.9 mph 92 % 0.0 in
08:17 11.4 °F 10.1 °F 1012.8 in WSW 1.6 mph 17.7 mph 92 % 0.0 in
08:22 11.5 °F 10.2 °F 1012.8 in SW 6.4 mph 20.9 mph 92 % 0.0 in
08:32 11.7 °F 10.3 °F 1013.1 in West 8.0 mph 17.7 mph 91 % 0.0 in
08:37 11.9 °F 10.3 °F 1013.1 in SW 11.3 mph 22.5 mph 90 % 0.0 in
08:42 11.9 °F 10.1 °F 1013.1 in West 8.0 mph 22.5 mph 89 % 0.0 in
08:47 11.9 °F 10.0 °F 1013.1 in West 6.4 mph 22.5 mph 88 % 0.0 in
08:57 11.9 °F 9.8 °F 1013.4 in SSW 4.8 mph 22.5 mph 87 % 0.0 in
09:02 12.0 °F 9.9 °F 1013.4 in SW 6.4 mph 22.5 mph 87 % 0.0 in
09:07 12.0 °F 9.7 °F 1013.4 in WSW 8.0 mph 16.1 mph 86 % 0.0 in
09:12 12.1 °F 10.0 °F 1013.8 in West 14.5 mph 14.5 mph 87 % 0.0 in
09:17 12.1 °F 10.0 °F 1013.8 in WNW 4.8 mph 16.1 mph 87 % 0.0 in
09:22 12.1 °F 10.0 °F 1013.8 in WNW 6.4 mph 17.7 mph 87 % 0.0 in
09:32 12.1 °F 10.0 °F 1014.1 in WSW 19.3 mph 19.3 mph 87 % 0.0 in
09:37 12.1 °F 9.8 °F 1014.1 in WSW 4.8 mph 17.7 mph 86 % 0.0 in
09:42 12.2 °F 9.9 °F 1014.1 in WSW 8.0 mph 19.3 mph 86 % 0.0 in
09:47 12.3 °F 10.0 °F 1014.1 in SW 6.4 mph 19.3 mph 86 % 0.0 in
09:52 12.4 °F 9.9 °F 1014.4 in West 14.5 mph 19.3 mph 85 % 0.0 in
09:57 12.5 °F 10.0 °F 1014.4 in West 8.0 mph 17.7 mph 85 % 0.0 in
10:02 12.6 °F 10.1 °F 1014.4 in West 4.8 mph 17.7 mph 85 % 0.0 in
10:12 12.6 °F 10.0 °F 1014.4 in West 4.8 mph 17.7 mph 84 % 0.0 in
10:17 12.5 °F 9.9 °F 1014.4 in WNW 8.0 mph 17.7 mph 84 % 0.0 in
10:27 12.7 °F 9.9 °F 1014.4 in WNW 9.7 mph 17.7 mph 83 % 0.0 in
10:32 12.8 °F 9.8 °F 1014.8 in West 12.9 mph 17.7 mph 82 % 0.0 in
10:37 13.1 °F 10.1 °F 1014.8 in WNW 12.9 mph 17.7 mph 82 % 0.0 in
10:42 13.2 °F 10.0 °F 1014.8 in West 4.8 mph 17.7 mph 81 % 0.0 in
10:52 13.1 °F 9.9 °F 1014.8 in West 3.2 mph 22.5 mph 81 % 0.0 in
10:57 13.2 °F 10.0 °F 1014.8 in WSW 12.9 mph 22.5 mph 81 % 0.0 in
11:02 13.1 °F 9.9 °F 1014.8 in West 8.0 mph 22.5 mph 81 % 0.0 in
11:07 13.2 °F 10.0 °F 1014.8 in WSW 17.7 mph 22.5 mph 81 % 0.0 in
11:12 13.4 °F 10.0 °F 1014.8 in West 9.7 mph 22.5 mph 80 % 0.0 in
11:17 13.7 °F 10.3 °F 1014.8 in WSW 14.5 mph 27.4 mph 80 % 0.0 in
11:22 13.8 °F 10.2 °F 1015.1 in WSW 14.5 mph 27.4 mph 79 % 0.0 in
11:27 13.7 °F 9.7 °F 1015.1 in WSW 19.3 mph 27.4 mph 77 % 0.0 in
11:32 13.8 °F 10.0 °F 1015.1 in SW 14.5 mph 30.6 mph 78 % 0.0 in
11:42 14.2 °F 10.2 °F 1015.1 in SSW 9.7 mph 30.6 mph 77 % 0.0 in
11:52 14.3 °F 10.1 °F 1015.1 in WSW 11.3 mph 27.4 mph 76 % 0.0 in
12:02 14.2 °F 9.6 °F 1015.5 in NW 12.9 mph 27.4 mph 74 % 0.0 in
12:12 14.4 °F 10.0 °F 1015.5 in WSW 17.7 mph 27.4 mph 75 % 0.0 in
12:17 14.7 °F 10.1 °F 1015.5 in WNW 17.7 mph 27.4 mph 74 % 0.0 in
12:22 14.8 °F 10.0 °F 1015.5 in WNW 12.9 mph 27.4 mph 73 % 0.0 in
12:27 15.1 °F 10.1 °F 1015.5 in West 9.7 mph 27.4 mph 72 % 0.0 in
12:32 15.2 °F 9.8 °F 1015.5 in WNW 11.3 mph 27.4 mph 70 % 0.0 in
12:37 15.3 °F 10.1 °F 1015.5 in West 6.4 mph 27.4 mph 71 % 0.0 in
12:42 15.3 °F 9.9 °F 1015.5 in West 20.9 mph 25.7 mph 70 % 0.0 in
12:47 15.3 °F 10.1 °F 1015.5 in SW 8.0 mph 25.7 mph 71 % 0.0 in
12:52 15.5 °F 9.4 °F 1015.5 in West 11.3 mph 30.6 mph 67 % 0.0 in
12:57 15.6 °F 9.7 °F 1015.5 in West 9.7 mph 30.6 mph 68 % 0.0 in
13:02 15.7 °F 9.8 °F 1015.5 in West 11.3 mph 30.6 mph 68 % 0.0 in
13:07 15.9 °F 9.3 °F 1015.8 in WSW 19.3 mph 30.6 mph 65 % 0.0 in
13:12 16.1 °F 10.0 °F 1015.8 in WSW 20.9 mph 29.0 mph 67 % 0.0 in
13:22 16.3 °F 9.9 °F 1015.8 in West 12.9 mph 29.0 mph 66 % 0.0 in
13:32 16.6 °F 10.0 °F 1015.8 in WSW 19.3 mph 29.0 mph 65 % 0.0 in
13:37 16.2 °F 9.6 °F 1015.8 in WSW 11.3 mph 27.4 mph 65 % 0.0 in
13:42 16.3 °F 9.7 °F 1015.8 in West 9.7 mph 27.4 mph 65 % 0.0 in
13:47 16.7 °F 9.4 °F 1015.8 in West 19.3 mph 27.4 mph 62 % 0.0 in
13:57 16.8 °F 9.2 °F 1015.8 in WSW 8.0 mph 24.1 mph 61 % 0.0 in
14:02 16.7 °F 9.4 °F 1016.1 in SW 14.5 mph 24.1 mph 62 % 0.0 in
14:07 16.5 °F 9.0 °F 1015.8 in WNW 11.3 mph 24.1 mph 61 % 0.0 in
14:12 16.7 °F 9.1 °F 1015.8 in West 22.5 mph 27.4 mph 61 % 0.0 in
14:17 16.7 °F 9.4 °F 1015.8 in West 9.7 mph 27.4 mph 62 % 0.0 in
14:22 16.8 °F 8.7 °F 1015.8 in WSW 20.9 mph 25.7 mph 59 % 0.0 in
14:32 17.4 °F 8.8 °F 1015.8 in WNW 12.9 mph 25.7 mph 57 % 0.0 in
14:37 17.2 °F 9.1 °F 1015.8 in WSW 12.9 mph 27.4 mph 59 % 0.0 in
14:42 17.4 °F 9.3 °F 1015.8 in WSW 11.3 mph 27.4 mph 59 % 0.0 in
14:47 17.5 °F 8.9 °F 1015.8 in SSW 11.3 mph 27.4 mph 57 % 0.0 in
14:52 17.8 °F 8.9 °F 1015.8 in West 12.9 mph 25.7 mph 56 % 0.0 in
14:57 17.6 °F 8.7 °F 1015.8 in WSW 11.3 mph 25.7 mph 56 % 0.0 in
15:02 18.0 °F 8.6 °F 1015.8 in SW 16.1 mph 25.7 mph 54 % 0.0 in
15:12 17.8 °F 8.4 °F 1015.5 in WSW 17.7 mph 35.4 mph 54 % 0.0 in
15:17 17.9 °F 7.9 °F 1015.5 in West 12.9 mph 35.4 mph 52 % 0.0 in
15:22 17.9 °F 8.2 °F 1015.5 in WSW 17.7 mph 37.0 mph 53 % 0.0 in
15:27 18.1 °F 7.5 °F 1015.5 in WSW 22.5 mph 37.0 mph 50 % 0.0 in
15:32 18.3 °F 8.0 °F 1015.5 in WSW 16.1 mph 37.0 mph 51 % 0.0 in
15:37 18.2 °F 8.2 °F 1015.5 in WNW 14.5 mph 35.4 mph 52 % 0.0 in
15:42 18.4 °F 7.5 °F 1015.5 in West 16.1 mph 35.4 mph 49 % 0.0 in
15:52 18.6 °F 7.7 °F 1015.5 in WNW 17.7 mph 29.0 mph 49 % 0.0 in
15:57 18.6 °F 7.4 °F 1015.5 in SW 20.9 mph 29.0 mph 48 % 0.0 in
16:02 18.6 °F 7.1 °F 1015.5 in WNW 9.7 mph 33.8 mph 47 % 0.0 in
16:07 18.4 °F 7.2 °F 1015.5 in WSW 14.5 mph 33.8 mph 48 % 0.0 in
16:12 18.4 °F 7.2 °F 1015.5 in West 19.3 mph 33.8 mph 48 % 0.0 in
16:17 18.4 °F 7.5 °F 1015.8 in West 17.7 mph 25.7 mph 49 % 0.0 in
16:22 18.2 °F 7.3 °F 1015.8 in West 17.7 mph 27.4 mph 49 % 0.0 in
16:32 18.6 °F 6.8 °F 1015.8 in WSW 11.3 mph 30.6 mph 46 % 0.0 in
16:37 18.8 °F 6.6 °F 1015.8 in West 25.7 mph 30.6 mph 45 % 0.0 in
16:42 18.7 °F 6.5 °F 1015.8 in West 11.3 mph 30.6 mph 45 % 0.0 in
16:47 18.9 °F 6.7 °F 1015.8 in WNW 14.5 mph 30.6 mph 45 % 0.0 in
16:52 18.8 °F 6.6 °F 1015.8 in WNW 22.5 mph 32.2 mph 45 % 0.0 in
16:57 18.7 °F 6.5 °F 1015.8 in West 9.7 mph 32.2 mph 45 % 0.0 in
17:02 18.9 °F 7.3 °F 1015.8 in NW 6.4 mph 32.2 mph 47 % 0.0 in
17:07 18.3 °F 7.1 °F 1015.8 in WSW 16.1 mph 32.2 mph 48 % 0.0 in
17:12 18.4 °F 7.5 °F 1015.8 in SW 14.5 mph 29.0 mph 49 % 0.0 in
17:22 18.9 °F 7.3 °F 1015.8 in WSW 9.7 mph 24.1 mph 47 % 0.0 in
17:32 18.8 °F 7.6 °F 1015.8 in WNW 17.7 mph 33.8 mph 48 % 0.0 in
17:37 18.9 °F 8.0 °F 1015.8 in West 19.3 mph 33.8 mph 49 % 0.0 in
17:42 18.6 °F 7.4 °F 1015.8 in WSW 22.5 mph 29.0 mph 48 % 0.0 in
17:47 18.6 °F 7.7 °F 1015.5 in WSW 12.9 mph 29.0 mph 49 % 0.0 in
17:52 18.4 °F 7.5 °F 1015.5 in WNW 14.5 mph 29.0 mph 49 % 0.0 in
17:57 18.2 °F 7.9 °F 1015.5 in WSW 8.0 mph 30.6 mph 51 % 0.0 in
18:02 18.0 °F 8.0 °F 1015.5 in WNW 12.9 mph 30.6 mph 52 % 0.0 in
18:07 18.0 °F 8.3 °F 1015.5 in West 4.8 mph 30.6 mph 53 % 0.0 in
18:12 18.3 °F 8.3 °F 1015.5 in WSW 11.3 mph 17.7 mph 52 % 0.0 in
18:17 18.5 °F 8.2 °F 1015.8 in WSW 20.9 mph 20.9 mph 51 % 0.0 in
18:22 18.5 °F 8.2 °F 1015.8 in WNW 14.5 mph 29.0 mph 51 % 0.0 in
18:27 18.4 °F 8.1 °F 1015.8 in West 16.1 mph 29.0 mph 51 % 0.0 in
18:32 18.3 °F 8.0 °F 1015.8 in West 17.7 mph 29.0 mph 51 % 0.0 in
18:37 18.2 °F 8.2 °F 1015.8 in WNW 8.0 mph 27.4 mph 52 % 0.0 in
18:42 18.1 °F 7.8 °F 1015.8 in West 11.3 mph 27.4 mph 51 % 0.0 in
18:52 17.7 °F 8.0 °F 1015.8 in West 9.7 mph 25.7 mph 53 % 0.0 in
18:57 17.6 °F 7.9 °F 1015.8 in West 3.2 mph 24.1 mph 53 % 0.0 in
19:02 17.5 °F 8.1 °F 1015.8 in WSW 6.4 mph 19.3 mph 54 % 0.0 in
19:07 17.4 °F 8.3 °F 1015.8 in West 16.1 mph 19.3 mph 55 % 0.0 in
19:12 17.3 °F 8.2 °F 1015.8 in West 8.0 mph 19.3 mph 55 % 0.0 in
19:17 17.2 °F 8.3 °F 1015.8 in West 6.4 mph 17.7 mph 56 % 0.0 in
19:22 17.2 °F 8.3 °F 1015.8 in WSW 6.4 mph 17.7 mph 56 % 0.0 in
19:27 17.1 °F 8.5 °F 1015.8 in SSW 1.6 mph 12.9 mph 57 % 0.0 in
19:32 16.9 °F 8.3 °F 1016.1 in SW 4.8 mph 12.9 mph 57 % 0.0 in
19:37 16.9 °F 8.3 °F 1016.1 in WSW 4.8 mph 9.7 mph 57 % 0.0 in
19:47 16.7 °F 8.4 °F 1015.8 in West 1.6 mph 8.0 mph 58 % 0.0 in
19:52 16.6 °F 8.6 °F 1016.1 in SW 3.2 mph 6.4 mph 59 % 0.0 in
19:57 16.6 °F 8.6 °F 1015.8 in SW 4.8 mph 6.4 mph 59 % 0.0 in
20:02 16.6 °F 8.6 °F 1016.1 in West 1.6 mph 6.4 mph 59 % 0.0 in
20:12 16.6 °F 8.6 °F 1016.1 in SW 4.8 mph 9.7 mph 59 % 0.0 in
20:17 16.6 °F 8.6 °F 1016.1 in West 3.2 mph 9.7 mph 59 % 0.0 in
20:22 16.6 °F 8.6 °F 1016.1 in WSW 6.4 mph 9.7 mph 59 % 0.0 in
20:27 16.6 °F 8.8 °F 1016.1 in WSW 3.2 mph 8.0 mph 60 % 0.0 in
20:32 16.4 °F 8.6 °F 1016.5 in WSW 4.8 mph 8.0 mph 60 % 0.0 in
20:37 16.4 °F 8.9 °F 1016.5 in SW 8.0 mph 8.0 mph 61 % 0.0 in
20:42 16.3 °F 8.8 °F 1016.5 in WSW 3.2 mph 9.7 mph 61 % 0.0 in
20:52 16.3 °F 9.2 °F 1016.8 in WSW 8.0 mph 20.9 mph 63 % 0.0 in
20:57 16.3 °F 9.2 °F 1016.8 in SW 9.7 mph 20.9 mph 63 % 0.0 in
21:02 16.2 °F 9.4 °F 1016.8 in SSW 9.7 mph 20.9 mph 64 % 0.0 in
21:07 16.2 °F 9.4 °F 1016.8 in SSW 8.0 mph 16.1 mph 64 % 0.0 in
21:12 16.0 °F 9.4 °F 1016.8 in SW 8.0 mph 16.1 mph 65 % 0.0 in
21:17 15.9 °F 9.3 °F 1017.2 in WSW 8.0 mph 16.1 mph 65 % 0.0 in
21:22 15.8 °F 9.5 °F 1017.2 in SSW 6.4 mph 14.5 mph 66 % 0.0 in
21:32 15.6 °F 9.5 °F 1016.8 in SW 6.4 mph 11.3 mph 67 % 0.0 in
21:37 15.3 °F 9.4 °F 1016.8 in SSW 8.0 mph 11.3 mph 68 % 0.0 in
21:42 15.0 °F 9.4 °F 1017.2 in SW 6.4 mph 11.3 mph 69 % 0.0 in
21:47 14.8 °F 9.4 °F 1017.2 in SW 6.4 mph 11.3 mph 70 % 0.0 in
21:52 14.7 °F 9.3 °F 1016.8 in SSW 6.4 mph 12.9 mph 70 % 0.0 in
21:57 14.4 °F 9.2 °F 1016.8 in SW 4.8 mph 12.9 mph 71 % 0.0 in
22:02 14.1 °F 8.9 °F 1016.5 in SSW 4.8 mph 9.7 mph 71 % 0.0 in
22:07 13.8 °F 9.0 °F 1016.5 in SW 11.3 mph 11.3 mph 73 % 0.0 in
22:12 13.7 °F 9.1 °F 1016.5 in WSW 4.8 mph 11.3 mph 74 % 0.0 in
22:22 13.6 °F 9.3 °F 1016.1 in SW 8.0 mph 12.9 mph 75 % 0.0 in
22:32 13.2 °F 9.3 °F 1016.1 in SSW 4.8 mph 12.9 mph 77 % 0.0 in
22:42 13.4 °F 9.4 °F 1016.5 in SW 6.4 mph 14.5 mph 77 % 0.0 in
22:47 13.4 °F 9.3 °F 1016.5 in South 6.4 mph 14.5 mph 76 % 0.0 in
22:52 13.3 °F 9.4 °F 1016.5 in SW 6.4 mph 14.5 mph 77 % 0.0 in
22:57 13.3 °F 9.4 °F 1016.5 in SSW 9.7 mph 12.9 mph 77 % 0.0 in
23:02 13.3 °F 9.2 °F 1016.5 in SW 6.4 mph 14.5 mph 76 % 0.0 in
23:07 13.3 °F 9.2 °F 1016.5 in SW 9.7 mph 14.5 mph 76 % 0.0 in
23:12 13.3 °F 9.2 °F 1016.5 in SW 12.9 mph 12.9 mph 76 % 0.0 in
23:17 13.4 °F 9.3 °F 1016.8 in WSW 9.7 mph 12.9 mph 76 % 0.0 in
23:22 13.4 °F 9.3 °F 1016.8 in WSW 4.8 mph 16.1 mph 76 % 0.0 in
23:32 13.3 °F 9.2 °F 1016.8 in SW 6.4 mph 16.1 mph 76 % 0.0 in
23:37 13.2 °F 9.3 °F 1016.8 in SSW 11.3 mph 16.1 mph 77 % 0.0 in
23:42 13.0 °F 9.3 °F 1016.8 in SW 6.4 mph 16.1 mph 78 % 0.0 in
23:47 12.9 °F 9.2 °F 1016.8 in SSW 4.8 mph 16.1 mph 78 % 0.0 in
23:52 12.7 °F 9.2 °F 1016.8 in SW 11.3 mph 12.9 mph 79 % 0.0 in
23:57 12.6 °F 9.2 °F 1016.8 in SSW 4.8 mph 12.9 mph 80 % 0.0 in
Meteo18
Compliments of Weather Underground - 4 mb

Script developed by  Jim McMurry - jmcmurry@mwt.net Adapted for the template by  Wim van der Kuil - Leuven-Template.eu

You find our weather info also at:

European Weather Network

Weather Underground

Equipment we use:

Weather-station
Davis Vue

Weather-program
Meteobridge

Weather-server
Raspberry PI 2 B+

Provider
1 and 1

Davis Vue

Meteobridge

Raspberry PI 2 B+

1 and 1